Location: Claflin County Park
(44.8478°N, 87.5507°W)
Time: 07:28:10
(UTC+00:00)

USA 234 - Pass Details

Date: 14 March 2026
Orbit: 1102 x 1106 km, 123.0° (Epoch: 4 January)

Event Time Altitude Azimuth Distance (km) Brightness Sun altitude
Exits shadow 02:43:33 51° 46° (NE) 1,364 3.5 -29.8°
Maximum altitude 02:44:09 53° 27° (NNE) 1,341 3.6 -29.8°
Drops below altitude 10° 02:50:27 10° 313° (NW) 2,970 6.4 -30.8°
Sets 02:53:00 0° 309° (NW) 3,930 7.3 -31.2°
